EW8337 Weather Reports


time (UTC)temp
F
wind
direction
speed
knots
gust
knots
rain 1hr
in
rain 24hr
in
rain mn
in
humidity
%
barometer
mb
20260505140158 39 170 0.9 4.3 0.00 0.03 0.01 87 1014.4
20260505130158 39 130 1.7 2.6 0.00 0.03 0.01 88 1013.4
20260505124658 42 0 0.0 0.0 0.00 0.03 0.01 83 1013.1
20260505124158 42 0 0.0 0.0 0.00 0.03 0.01 83 1013.2
20260505123658 42 0 0.0 0.0 0.00 0.03 0.01 83 1013.2
20260505123159 42 0 0.0 0.0 0.00 0.03 0.01 83 1013.1
20260505122658 42 0 0.0 0.0 0.00 0.03 0.01 83 1012.9
20260505122158 42 0 0.0 0.0 0.00 0.03 0.01 83 1012.9
20260505121658 42 0 0.0 0.0 0.00 0.03 0.01 83 1012.8
20260505121159 42 0 0.0 0.0 0.00 0.03 0.01 83 1012.7
20260505120658 42 0 0.0 0.0 0.00 0.03 0.01 83 1012.7
20260505120158 42 0 0.0 0.0 0.00 0.03 0.01 83 1012.7
20260505115658 42 0 0.0 0.0 0.00 0.03 0.01 83 1012.6
20260505115158 42 0 0.0 0.0 0.00 0.03 0.01 83 1012.6
20260505114658 42 0 0.0 0.0 0.00 0.03 0.01 83 1012.7
20260505114158 42 0 0.0 0.0 0.00 0.03 0.01 83 1012.5
20260505113658 42 0 0.0 0.0 0.00 0.03 0.01 83 1012.5
20260505113158 42 0 0.0 0.0 0.00 0.03 0.01 83 1012.4
20260505112658 42 0 0.0 0.0 0.00 0.03 0.01 83 1012.4
20260505111658 42 0 0.0 0.0 0.00 0.03 0.01 83 1012.3
20260505111158 42 0 0.0 0.0 0.00 0.03 0.01 83 1012.4
20260505110659 42 0 0.0 0.0 0.00 0.03 0.01 83 1012.5
20260505110158 42 0 0.0 0.0 0.00 0.03 0.01 83 1012.4
20260505102158 42 0 0.0 0.0 0.00 0.03 0.01 83 1012.4
20260505101659 42 0 0.0 0.0 0.00 0.03 0.01 83 1012.4
20260505101159 42 0 0.0 0.0 0.00 0.03 0.01 83 1012.4
20260505100659 42 0 0.0 0.0 0.00 0.03 0.01 83 1012.3
20260505100159 42 0 0.0 0.0 0.00 0.03 0.01 83 1012.3
20260505095659 42 0 0.0 0.0 0.00 0.03 0.01 83 1012.3
20260505095159 42 0 0.0 0.0 0.00 0.03 0.01 83 1012.2
20260505094658 42 0 0.0 0.0 0.00 0.03 0.01 83 1012.3
20260505094158 42 0 0.0 0.0 0.00 0.03 0.01 83 1012.2
20260505093659 42 0 0.0 0.0 0.00 0.03 0.01 83 1012.2
20260505093158 42 0 0.0 0.0 0.00 0.03 0.01 83 1012.0
20260505092659 42 0 0.0 0.0 0.00 0.03 0.01 83 1012.0
20260505092158 42 1 0.0 0.0 0.00 0.03 0.01 83 1012.2
20260505091658 42 350 0.0 0.0 0.00 0.03 0.01 83 1012.2
20260505091159 42 350 0.0 0.0 0.00 0.03 0.01 83 1012.1
20260505090658 42 335 0.0 0.0 0.00 0.03 0.01 83 1012.1
20260505085659 42 51 0.0 0.0 0.00 0.03 0.01 82 1012.4
20260505085158 43 35 0.0 1.7 0.00 0.03 0.01 82 1012.5
20260505084659 43 27 0.9 5.2 0.00 0.03 0.01 83 1012.7
20260505084158 43 35 0.0 2.6 0.00 0.03 0.01 83 1012.7
20260505083159 43 99 0.0 0.0 0.00 0.03 0.01 82 1012.8
20260505082658 43 27 0.0 0.9 0.00 0.03 0.01 81 1012.8
20260505082158 44 26 0.0 0.0 0.00 0.03 0.01 82 1012.9
20260505081658 44 75 0.0 0.0 0.00 0.03 0.01 83 1013.1
20260505081158 44 1 0.0 0.0 0.00 0.03 0.01 83 1013.0
20260505080658 44 26 0.9 2.6 0.00 0.03 0.01 82 1013.1
20260505080158 44 287 0.0 0.0 0.00 0.03 0.01 83 1013.1
20260505075659 44 345 0.0 1.7 0.00 0.03 0.01 83 1012.9
20260505075159 44 336 0.0 0.9 0.00 0.03 0.01 82 1013.0
20260505074659 44 341 0.0 1.7 0.00 0.03 0.01 83 1013.1
20260505074159 44 347 0.9 2.6 0.00 0.03 0.01 83 1013.0
20260505073659 44 2 0.0 2.6 0.00 0.03 0.01 83 1013.1
20260505073158 44 356 0.9 2.6 0.01 0.03 0.01 83 1013.1
20260505072658 44 345 0.9 2.6 0.01 0.03 0.01 84 1013.1
20260505071659 44 352 0.0 4.3 0.01 0.03 0.01 85 1013.2
20260505070658 44 5 1.7 2.6 0.01 0.03 0.01 85 1013.3
20260505070159 44 10 1.7 5.2 0.01 0.03 0.01 85 1013.3
20260505065659 44 359 0.0 1.7 0.01 0.03 0.01 85 1013.3
20260505065159 44 11 0.0 2.6 0.01 0.03 0.01 85 1013.2
20260505064658 44 11 0.9 2.6 0.01 0.03 0.01 85 1013.3
20260505064159 44 13 0.9 2.6 0.01 0.03 0.01 85 1013.1
20260505063659 44 336 0.0 2.6 0.01 0.03 0.01 85 1013.1
20260505062659 44 11 0.9 4.3 0.01 0.02 0.00 84 1013.2
20260505062159 44 3 1.7 4.3 0.01 0.02 0.00 84 1013.1
20260505061658 45 15 1.7 4.3 0.01 0.02 0.00 83 1013.1
20260505061159 45 15 1.7 4.3 0.01 0.02 0.00 82 1013.2
20260505060659 45 351 2.6 5.2 0.01 0.02 0.00 82 1013.5
20260505060159 45 343 0.9 4.3 0.01 0.02 0.00 80 1013.6
20260505055659 45 17 1.7 4.3 0.01 0.02 0.02 79 1013.6
20260505055159 46 19 0.9 2.6 0.01 0.02 0.02 77 1013.7
20260505054658 46 355 0.9 5.2 0.01 0.02 0.02 76 1013.8
20260505054159 46 341 1.7 2.6 0.01 0.02 0.02 77 1013.8
20260505053659 46 345 0.9 4.3 0.01 0.02 0.02 75 1013.5
20260505053159 46 0 0.0 0.0 0.01 0.02 0.02 74 1013.4
20260505052659 46 346 0.9 4.3 0.00 0.01 0.01 73 1013.5
20260505051159 46 335 0.9 2.6 0.00 0.01 0.01 72 1013.6
20260505041659 47 305 0.0 1.7 0.00 0.01 0.01 72 1012.9
20260505041159 47 4 0.9 2.6 0.00 0.01 0.01 71 1012.6
20260505040700 47 12 0.9 2.6 0.00 0.01 0.01 71 1012.6
20260505040200 47 348 0.0 0.0 0.00 0.01 0.01 72 1012.4
20260505035659 47 38 0.0 4.3 0.00 0.01 0.01 72 1012.5
20260505035159 47 22 0.9 4.3 0.00 0.01 0.01 71 1012.6
20260505034659 47 34 1.7 4.3 0.00 0.01 0.01 71 1012.6
20260505033659 47 351 5.2 7.8 0.00 0.01 0.01 70 1012.8
20260505033159 47 337 4.3 6.1 0.00 0.01 0.01 70 1012.7
20260505032659 47 330 3.5 8.7 0.00 0.01 0.01 70 1012.7
20260505032159 47 334 2.6 7.8 0.00 0.01 0.01 70 1012.5
20260505031159 47 6 4.3 10.4 0.00 0.01 0.01 71 1012.2
20260505030659 47 1 2.6 6.1 0.00 0.01 0.01 72 1012.2
20260505030159 47 353 3.5 6.1 0.00 0.01 0.01 72 1012.2
20260505025659 47 352 4.3 8.7 0.00 0.01 0.01 72 1012.4
20260505025159 47 349 4.3 10.4 0.00 0.01 0.01 72 1012.3
20260505024659 47 354 5.2 8.7 0.00 0.01 0.01 71 1012.4
20260505024159 47 345 4.3 8.7 0.00 0.01 0.01 71 1012.4
20260505023659 47 359 3.5 10.4 0.00 0.01 0.01 71 1012.3
20260505023159 47 21 2.6 8.7 0.01 0.01 0.01 71 1012.2
20260505022700 47 20 2.6 6.1 0.01 0.01 0.01 71 1012.3
20260505021159 48 356 2.6 6.1 0.01 0.01 0.01 70 1012.2
20260505020659 48 4 3.5 7.0 0.01 0.01 0.01 69 1012.5
20260505020159 48 356 3.5 10.4 0.01 0.01 0.01 68 1012.7
20260505015659 48 359 5.2 10.4 0.01 0.01 0.01 67 1012.6
20260505015159 49 7 5.2 10.4 0.01 0.01 0.01 65 1012.4
20260505014659 49 36 5.2 12.2 0.01 0.01 0.01 62 1012.2
20260505014159 50 350 5.2 10.4 0.01 0.01 0.01 59 1012.1
20260505013200 51 43 2.6 7.0 0.00 0.00 0.00 59 1012.4
20260505012659 51 26 3.5 10.4 0.00 0.00 0.00 57 1012.3
20260505012159 51 354 2.6 8.7 0.00 0.00 0.00 57 1012.3
20260505011159 54 46 3.5 13.0 0.00 0.00 0.00 53 1012.1
20260505010659 55 344 6.1 10.4 0.00 0.00 0.00 44 1011.5
20260505010200 55 5 0.9 7.0 0.00 0.00 0.00 43 1011.4
20260505005700 56 355 5.2 8.7 0.00 0.00 0.00 42 1011.4
20260505005200 56 346 4.3 10.4 0.00 0.00 0.00 40 1011.4
20260505004659 57 26 5.2 10.4 0.00 0.00 0.00 38 1011.1
20260505004159 57 349 2.6 7.8 0.00 0.00 0.00 37 1010.9
20260505003659 57 7 2.6 7.8 0.00 0.00 0.00 36 1010.6
20260505003159 58 347 4.3 10.4 0.00 0.00 0.00 35 1010.5
20260505002659 58 27 1.7 7.8 0.00 0.00 0.00 36 1010.4
20260505002159 58 17 4.3 8.7 0.00 0.00 0.00 35 1010.3
20260505001700 58 31 7.8 15.6 0.00 0.00 0.00 35 1010.1
20260505001159 59 23 7.8 13.0 0.00 0.00 0.00 34 1010.0
20260505000659 60 13 4.3 10.4 0.00 0.00 0.00 34 1009.9
20260505000159 60 26 5.2 15.6 0.00 0.00 0.00 33 1009.8
20260504235700 61 20 5.2 10.4 0.00 0.00 0.00 32 1009.9
20260504235200 61 5 3.5 10.4 0.00 0.00 0.00 32 1009.8
20260504234659 62 10 5.2 12.2 0.00 0.00 0.00 32 1009.7
20260504234200 62 35 5.2 10.4 0.00 0.00 0.00 32 1009.7
20260504233659 62 50 0.9 2.6 0.00 0.00 0.00 33 1009.9
20260504233200 63 42 1.7 5.2 0.00 0.00 0.00 32 1009.9
20260504232659 63 49 0.0 1.7 0.00 0.00 0.00 32 1010.1
20260504232159 63 27 0.9 2.6 0.00 0.00 0.00 31 1010.0
20260504231659 64 227 0.0 0.9 0.00 0.00 0.00 30 1009.9
20260504230700 63 135 0.0 0.9 0.00 0.00 0.00 34 1009.8
20260504230200 62 123 0.9 2.6 0.00 0.00 0.00 35 1009.9
20260504225700 61 143 1.7 6.1 0.00 0.00 0.00 34 1009.9
20260504225159 61 229 1.7 6.1 0.00 0.00 0.00 34 1009.8
20260504224659 61 142 0.0 2.6 0.00 0.00 0.00 36 1009.9
20260504224200 60 178 0.9 6.1 0.00 0.00 0.00 35 1010.2
20260504223659 61 178 1.7 7.8 0.00 0.00 0.00 35 1010.1
20260504222659 60 171 4.3 11.3 0.00 0.00 0.00 34 1010.1
20260504221659 58 202 1.7 8.7 0.00 0.00 0.00 36 1010.3
20260504221200 58 176 1.7 15.6 0.00 0.00 0.00 41 1010.4
20260504220700 60 203 4.3 15.6 0.00 0.00 0.00 37 1010.6
20260504220200 61 211 2.6 10.4 0.00 0.00 0.00 31 1010.5
20260504215700 61 242 1.7 7.8 0.00 0.00 0.00 30 1010.2
20260504215200 62 204 0.0 8.7 0.00 0.00 0.00 28 1010.3
20260504214659 63 4 6.1 13.9 0.00 0.00 0.00 27 1010.2
20260504214200 64 323 6.1 14.8 0.00 0.00 0.00 24 1009.8
20260504213700 64 355 6.1 12.2 0.00 0.00 0.00 24 1009.5
20260504213200 64 339 5.2 10.4 0.00 0.00 0.00 23 1009.3
20260504212159 65 337 2.6 7.8 0.00 0.00 0.00 22 1009.3
20260504211659 65 294 0.9 1.7 0.00 0.00 0.00 20 1009.2
20260504211200 66 123 0.0 2.6 0.00 0.00 0.00 21 1009.2
20260504210200 66 235 2.6 6.1 0.00 0.00 0.00 21 1009.2
20260504205700 66 229 2.6 7.8 0.00 0.00 0.00 21 1009.2
20260504205200 66 225 3.5 6.1 0.00 0.00 0.00 21 1009.4
20260504204700 67 241 2.6 7.8 0.00 0.00 0.00 21 1009.4
20260504204200 67 335 1.7 5.2 0.00 0.00 0.00 21 1009.5
20260504203700 67 294 5.2 8.7 0.00 0.00 0.00 21 1009.7
20260504202700 66 280 2.6 7.8 0.00 0.00 0.00 22 1009.8
20260504202200 65 252 4.3 10.4 0.00 0.00 0.00 21 1009.9
20260504201700 65 321 4.3 8.7 0.00 0.00 0.00 22 1009.9
20260504201200 65 344 1.7 7.0 0.00 0.00 0.00 21 1009.9
20260504200700 64 339 1.7 8.7 0.00 0.00 0.00 21 1009.9
20260504200159 64 1 6.1 14.8 0.00 0.00 0.00 21 1009.9
20260504195700 65 306 10.4 20.0 0.00 0.00 0.00 21 1010.1
20260504195200 66 314 2.6 17.4 0.00 0.00 0.00 18 1009.9
20260504194700 67 354 1.7 7.0 0.00 0.00 0.00 17 1009.9
20260504194200 67 267 1.7 6.1 0.00 0.00 0.00 17 1009.9
20260504193700 67 260 2.6 10.4 0.00 0.00 0.00 16 1010.0
20260504193200 69 80 0.0 2.6 0.00 0.00 0.00 16 1009.9
20260504192700 69 235 1.7 8.7 0.00 0.00 0.00 16 1010.0
20260504191700 68 123 0.0 2.6 0.00 0.00 0.00 16 1010.1
20260504190659 68 248 5.2 10.4 0.00 0.00 0.00 16 1010.3
20260504190159 67 215 3.5 7.0 0.00 0.00 0.00 17 1010.4
20260504185700 68 275 5.2 11.3 0.00 0.00 0.00 17 1010.5
20260504185200 67 162 0.9 6.1 0.00 0.00 0.00 18 1010.5
20260504184659 68 279 0.9 5.2 0.00 0.00 0.00 17 1010.5
20260504184200 67 242 1.7 5.2 0.00 0.00 0.00 17 1010.6
20260504183700 68 245 1.7 10.4 0.00 0.00 0.00 17 1010.7
20260504183159 68 241 2.6 5.2 0.00 0.00 0.00 16 1011.0
20260504182700 67 283 1.7 2.6 0.00 0.00 0.00 18 1011.1
20260504182200 67 135 0.0 4.3 0.00 0.00 0.00 19 1011.2
20260504181700 65 221 1.7 4.3 0.00 0.00 0.00 19 1011.3
20260504181200 65 249 1.7 6.1 0.00 0.00 0.00 19 1011.3
20260504180700 64 4 3.5 10.4 0.00 0.00 0.00 20 1011.3
20260504180159 64 274 0.9 11.3 0.00 0.00 0.00 21 1011.4
20260504175700 65 248 2.6 10.4 0.00 0.00 0.00 20 1011.5
20260504174700 65 290 3.5 13.9 0.00 0.00 0.00 22 1011.5
20260504174201 65 253 2.6 7.0 0.00 0.00 0.00 22 1011.6
20260504173700 65 256 4.3 13.0 0.00 0.00 0.00 21 1011.7
20260504173200 66 252 1.7 5.2 0.00 0.00 0.00 22 1011.7
20260504172700 66 259 2.6 7.8 0.00 0.00 0.00 22 1011.8
20260504172200 66 237 0.9 8.7 0.00 0.00 0.00 22 1011.8
20260504171701 66 228 0.9 7.0 0.00 0.00 0.00 22 1011.9
20260504171200 65 235 0.9 10.4 0.00 0.00 0.00 24 1012.0
20260504170200 63 298 5.2 11.3 0.00 0.00 0.00 26 1012.1
20260504150700 58 330 7.0 11.3 0.00 0.00 0.00 32 1013.0
20260504150201 58 298 7.0 11.3 0.00 0.00 0.00 32 1012.9